Hourly Data Report for May 16, 2012

All times are specified in Local Standard Time (LST). Add 1 hour to adjust for Daylight Saving Time where and when it is observed.

LONDON A
ONTARIO

43°01'59.000" N
81°09'04.000" W
278.00 m
6144473
71623
YXU

Download Data

Hourly Data (May 2012)
Hourly Data Report for May 16, 2012
Temp Definition
°C
Dew Point Temp Definition
°C
Rel Hum Definition
%
Wind Dir Definition
10's deg

Wind Spd Definition
km/h
Visibility Definition
km
Stn Press Definition
kPa
Hmdx Definition


Wind Chill Definition


Weather Definition


TIME
00:00 17.2 7.6 53 20 16 10.0 97.78     LegendNANA
01:00 16.3 8.6 60 31 19 10.0 97.98     Rain Showers
02:00 14.2 8.2 67 34 18 10.0 97.89     LegendNANA
03:00 13.3 9.0 75 36 12 10.0 97.82     LegendNANA
04:00 12.5 9.4 81 0 6 10.0 97.81     Cloudy
05:00 12.3 9.5 83 32 5 10.0 97.77     LegendNANA
06:00 12.9 11.0 88 27 16 10.0 97.96     Rain Showers
07:00 11.4 10.2 92 29 18 10.0 98.02     Rain Showers
08:00 9.8 7.6 86 33 24 10.0 98.08     LegendNANA
09:00 10.1 6.8 80 31 18 10.0 98.20     LegendNANA
10:00 10.0 6.0 76 31 23 10.0 98.25     Mostly Cloudy
11:00 9.4 4.6 72 32 25 10.0 98.32     LegendNANA
12:00 10.5 5.1 69 33 33 10.0 98.33     LegendNANA
13:00 11.0 3.8 61 31 26 10.0 98.35     Mostly Cloudy
14:00 11.6 3.7 58 33 28 10.0 98.38     LegendNANA
15:00 13.0 0.1 41 33 35 10.0 98.39     LegendNANA
16:00 13.2 0.3 41 33 32 10.0 98.42     Mainly Clear
17:00 13.0 -0.2 40 32 25 10.0 98.45     LegendNANA
18:00 12.6 0.4 43 33 21 10.0 98.47     LegendNANA
19:00 11.3 0.7 48 34 13 10.0 98.50     Clear
20:00 9.6 0.8 54 32 8 10.0 98.56     LegendNANA
21:00 8.2 0.7 59 35 13 10.0 98.64     LegendNANA
22:00 6.6 0.5 65 34 9 10.0 98.72     Clear
23:00 6.6 0.5 65   0 10.0 98.73     LegendNANA

Notes on Data Quality.

Legend

  • E = Estimated
  • M = Missing
  • NA = Not Available
Date modified: